Powrót do katalogu

CZ-4 DEB

AktywnySSO
NORAD 20879·DEBRIS·🇨🇳 China

Wystrzelony Sep 3, 1990 z Taiyuan Satellite Launch Center

Loading…

Następne Przeloty (najbliższe 24 godziny)

TLE

ŚwieżeSource: Space-Track

Epoka: Sep 14, 2026, 13:06 UTC

1 20879U 90081AP  26257.54594451  .00000582  00000-0  37263-3 0  9992
2 20879  99.4061 104.3891 0096815 284.9730 103.1473 14.05430975654209

Śledź CZ-4 DEB w czasie rzeczywistym z AllMySat

Download on the App Store